Content
SEND FEEDBACK

Daily
Averages
Monthly
Summary
United States of America

SALT FLAT - AIRPORT, TEXAS


Home > North America > United States > Texas
Elevation: 3720 feet     Latitude: 31 45N     Longitude: 105 05W

WEATHER
 
SELECT A DAY
Number of Records: 242,075;   Date Range: 1/1/95 - 10/23/14
 
SHARE

PRINT THIS DATA

[ ← Previous Day ]
WEATHER ALMANAC - JANUARY 31, 2013
[ Next Day → ]
[ °C ]   °F
Weather ElementAverageHighLow
Temperature42 °F54 °F (2:51 pm)30 °F (2:51 am)
Dewpoint10.9 °F14 °F (11:51 am)5 °F (1:51 am)
Humidity29.1 %40 % (3:51 am)20 % (1:51 pm)
Barometer30.21 in30.26 in (7:51 am)30.17 in (1:51 am)
Wind Speed12.8 mph18.4 mph (2:51 am)
Wind Gust29.9 mph (5:51 am)
Weather ElementAverage
Visibility9.5 mi
Wind DirectionSW (224.8 °)

Weather ElementTotal
Precipitation---
Heating Degree Days23 (Base 65)
Averaged from 23 records on January 31, 2013
WEATHER CONDITIONS BREAKOUT
WIND DIRECTION BREAKOUT
WEATHER BY HOUR - JANUARY 31, 2013
[ °C ]   °F
Local TimeTemperatureDewpointHumidityBarometerVisibilityWind DirectionWind SpeedGust SpeedPrecipitationEventsConditions
1:51 AM30.9 °F5.0 °F33 %30.17 in10.0 miSW (230°)17.3 mphClear
2:51 AM30.0 °F7.0 °F38 %30.18 in10.0 miWSW (250°)18.4 mphClear
3:51 AM30.0 °F8.1 °F40 %30.17 in10.0 miWSW (250°)18.4 mphClear
4:51 AM30.0 °F8.1 °F40 %30.18 in10.0 miWSW (250°)18.4 mphClear
5:51 AM30.9 °F9.0 °F40 %30.19 in10.0 miWSW (240°)18.4 mph29.9 mphClear
6:51 AM30.9 °F9.0 °F40 %30.21 in9.0 miSSW (210°)15.0 mph24.2 mphClear
7:51 AM32.0 °F10.0 °F40 %30.26 in9.0 miSW (220°)12.7 mph20.7 mphClear
8:51 AM34.0 °F10.9 °F38 %30.25 in9.0 miWSW (240°)15.0 mph23.0 mphClear
9:51 AM39.0 °F10.9 °F32 %30.25 in9.0 miWSW (240°)17.3 mphClear
10:51 AM46.0 °F12.9 °F26 %30.23 in9.0 miWSW (240°)15.0 mph24.2 mphClear
11:51 AM50.0 °F14.0 °F24 %30.21 in9.0 miWSW (240°)18.4 mphClear
12:51 PM53.1 °F14.0 °F21 %30.17 in9.0 miWSW (250°)18.4 mph27.6 mphClear
1:51 PM53.1 °F12.9 °F20 %30.17 in9.0 miWSW (250°)18.4 mph26.5 mphClear
2:51 PM54.0 °F12.9 °F20 %30.17 in9.0 miWSW (240°)15.0 mphClear
3:51 PM52.0 °F12.0 °F20 %30.18 in9.0 miWSW (240°)15.0 mphClear
4:51 PM48.9 °F10.9 °F22 %30.20 in9.0 miSW (230°)10.4 mphClear
5:51 PM46.0 °F10.9 °F24 %30.21 in10.0 miWSW (240°)3.5 mphClear
6:51 PM46.9 °F10.9 °F23 %30.22 in10.0 miWest (270°)3.5 mphClear
7:51 PM46.9 °F10.9 °F23 %30.23 in10.0 miSouth (180°)3.5 mphClear
8:51 PM46.9 °F10.9 °F23 %30.24 in10.0 miCalmClear
9:51 PM45.0 °F12.9 °F27 %30.24 in10.0 miSW (230°)8.1 mphClear
10:51 PM44.1 °F12.9 °F28 %30.22 in10.0 miSW (220°)8.1 mphClear
11:51 PM45.0 °F12.9 °F27 %30.18 in10.0 miSSW (210°)6.9 mphClear
Hourly data recorded from KGDP, located miles away from Salt Flat - Airport, Texas







STORIES FROM OUR PARTNERS